Presure
186 204 202 107 93 119 94 82 82 82 95 114 94 114 94 92 108 115 89 107 114 117 123 120 123 124 113 90 117 125 106 150 109 99 91 100 93 105 103 105 104 106 112 115 120 112 111 120 118
184 184 180 200 235 184 91 90 84 88 84 98 193 100 102 142 191 139 113 101 97 92 92 89 127 122 127 126 111 129 115 145 183 148 148 159 130 92 101 100 98 100 103 111 114 116 116 112 118
178 172 184 192 175 85 95 88 87 83 88 86 89 124 107 110 126 101 123 119 114 112 128 96 90 103 113 126 115 117 122 127 153 162 165 159 162 174 149 93 89 162 101 102 111 119 108 110 117
182 180 168 186 194 181 87 89 90 94 89 86 89 90 87 83 84 93 92 94 101 99 101 106 107 100 85 107 108 101 105 102 102 107 105 108 170 128 177 173 182 94 155 166 131 102 101 115 138
166 178 172 170 188 198 180 85 98 123 90 92 91 87 83 92 83 87 94 100 91 101 100 95 86 83 91 89 90 98 100 99 92 98 98 113 104 103 111 156 176 174 125 101 96 158 167 173 171
177 168 172 172 189 193 186 108 82 106 98 90 89 93 86 80 93 83 90 82 91 91 93 100 100 95 98 98 92 93 88 96 95 96 93 96 97 101 104 105 115 119 126 157 128 132 104 163 101
169 179 172 175 175 187 187 181 93 84 150 92 95 90 92 86 87 84 85 82 83 83 83 91 96 94 98 98 95 94 94 87 90 99 96 99 89 92 106 102 107 109 117 120 121 122 127 123 106
175 162 174 181 180 169 182 180 189 213 94 87 90 96 90 91 94 89 89 72 84 86 82 88 88 89 91 89 88 84 94 94 88 88 95 93 97 99 96 98 106 116 117 118 115 114 113 121 101
169 171 173 170 181 187 173 172 196 194 95 107 99 92 92 93 91 92 94 93 82 88 82 87 91 87 91 90 90 92 95 92 96 92 88 85 83 84 105 103 102 120 116 122 121 111 114 123 125
178 167 168 174 182 180 181 162 182 195 186 256 174 95 85 85 97 99 92 92 93 86 90 90 88 89 87 88 91 89 93 93 93 96 94 92 100 94 92 91 111 162 99 121 118 128 128 121 126
175 177 176 173 184 182 178 172 183 177 193 190 232 232 97 97 93 92 93 100 93 91 94 94 89 87 90 93 90 92 84 92 90 95 93 85 88 94 100 100 88 115 132 165 173 166 170 185 127
198 175 187 178 179 186 185 183 173 180 169 194 182 232 231 108 96 107 95 91 95 100 101 102 94 92 96 94 94 93 90 94 92 91 96 89 95 83 96 101 103 114 164 140 180 174 171 172 175
200 218 201 179 186 180 192 186 182 168 171 176 194 196 226 231 214 97 95 96 100 96 98 99 104 129 104 105 95 96 96 93 90 87 99 101 96 91 110 95 85 95 132 122 125 122 171 180 181
200 197 203 212 196 189 182 196 178 124 150 168 177 189 192 200 178 223 180 100 110 93 96 97 98 95 95 94 93 96 97 103 92 92 83 100 102 93 115 98 115 107 168 124 122 121 113 131 134
214 200 206 207 203 199 205 197 188 169 178 169 170 178 191 177 231 222 225 211 197 108 181 97 101 95 92 95 99 95 97 96 93 127 96 100 102 134 111 128 184 141 125 180 126 117 120 116 168
218 225 204 128 204 201 209 150 191 189 182 177 169 174 173 189 186 225 227 225 220 203 194 102 100 94 102 101 100 102 99 85 101 97 86 98 102 131 109 118 129 125 125 134 133 120 121 124 126
201 193 238 197 203 188 190 182 184 190 192 191 175 182 179 172 185 177 224 219 218 227 212 192 191 139 103 102 96 98 97 106 104 94 96 104 104 107 141 128 128 173 147 169 149 143 117 124 126
114 189 169 221 216 201 204 180 190 200 192 192 192 180 185 178 175 180 181 188 208 215 221 214 206 184 185 182 172 144 174 157 126 145 160 104 110 119 134 181 133 170 180 129 135 173 119 120 128
66 198 198 166 202 232 195 198 195 195 203 195 197 132 168 183 174 175 185 178 227 210 209 213 217 220 192 189 182 187 185 177 172 174 179 178 180 183 183 187 182 169 135 177 162 111 116 119 122
197 197 74 144 199 198 233 189 190 203 197 203 206 193 196 189 182 179 171 181 172 196 227 217 212 211 212 213 195 188 186 184 186 182 176 180 180 177 182 184 186 176 179 164 180 177 121 157 121
217 196 199 71 191 197 193 231 200 196 206 197 204 207 198 193 190 181 178 180 170 183 174 229 227 225 223 218 220 213 201 194 195 192 191 187 182 177 171 176 178 177 183 181 181 184 181 182 119
116 214 193 186 155 81 92 202 229 199 199 210 199 203 211 197 192 193 176 171 184 179 189 178 193 223 225 222 213 213 213 212 214 217 210 207 206 203 193 188 174 173 180 179 184 181 185 185 118
231 191 201 163 189 184 194 208 203 222 194 197 224 201 199 206 197 194 195 175 165 177 182 185 186 174 216 217 216 214 212 215 219 217 205 217 221 223 224 221 209 207 213 200 120 123 195 189 191
128 226 210 199 200 89 200 205 203 203 218 215 198 218 206 202 208 196 193 178 173 192 193 182 182 183 85 78 214 214 213 213 212 213 214 214 151 123 184 183 118 118 121 123 122 122 121 215 212
258 210 223 68 144 207 202 195 201 157 197 210 225 198 202 209 201 209 192 192 176 196 193 196 186 180 183 176 172 190 212 212 210 211 211 210 209 208 207 175 177 127 178 213 214 215 214 214 214
278 269 212 230 220 207 117 175 195 133 201 200 201 222 200 193 204 208 207 200 185 185 193 196 198 190 175 180 181 183 173 180 205 211 211 209 207 207 208 208 208 208 209 210 210 209 209 209 212
340 277 269 223 213 192 207 196 206 80 201 185 207 205 227 207 190 189 198 203 210 208 189 196 192 199 194 190 176 175 185 186 173 178 199 204 205 207 210 212 213 219 229 233 242 242 250 259 264
387 325 279 264 222 219 215 125 210 211 207 205 137 207 202 222 228 192 191 195 197 205 205 200 194 184 189 193 194 189 183 181 186 188 179 178 181 193 199 206 209 209 209 209 210 212 215 230 245
367 410 309 276 257 223 228 220 219 179 189 206 203 126 170 200 213 222 225 192 196 196 193 192 184 177 171 171 181 192 193 190 182 183 182 179 176 175 110 180 183 185 189 191 192 196 200 208 221
354 362 408 295 265 255 245 231 229 222 208 85 207 208 206 207 202 205 212 212 222 206 184 196 192 186 182 195 187 189 183 193 193 189 176 181 180 175 180 174 174 174 179 184 187 186 189 201 202
Wind_Speed
30 26 35 46 49 49 39 34 38 34 38 40 35 40 28 29 32 29 23 33 30 27 27 25 24 23 21 15 18 18 13 21 12 9 6 6 4 4 3 3 2 2 2 4 4 2 1 2 2
33 32 37 35 28 37 39 44 41 41 40 40 49 40 39 44 54 41 34 32 29 24 24 22 26 24 23 22 19 19 15 21 24 22 19 20 11 5 4 3 3 2 2 5 5 5 5 4 5
36 40 33 35 46 39 53 53 50 42 42 39 39 48 43 37 40 33 38 36 34 31 33 26 22 22 20 22 18 17 17 18 19 22 24 22 20 19 15 6 4 20 5 5 7 8 5 6 8
37 37 46 38 44 44 50 52 52 51 47 44 41 40 34 33 32 34 31 30 32 30 29 27 25 23 21 19 18 16 14 12 11 8 7 4 24 11 20 20 19 8 21 18 12 9 8 10 16
47 41 45 52 47 41 45 47 61 52 52 49 48 41 37 40 37 37 33 32 30 30 30 28 26 24 23 21 20 15 15 14 15 11 11 12 4 5 5 19 21 17 12 12 12 18 18 22 23
47 49 49 54 46 39 44 59 40 45 59 49 46 47 42 39 43 34 36 32 34 32 30 29 29 27 25 23 22 20 19 15 15 14 17 13 12 9 8 10 9 11 14 19 14 20 15 22 16
55 48 55 56 54 46 45 50 58 51 51 54 56 51 49 47 45 39 39 36 36 34 31 31 30 29 28 27 25 24 22 23 21 15 16 14 18 17 11 13 13 13 15 14 14 13 14 15 17
57 58 55 57 58 58 48 53 51 47 64 54 56 60 52 50 49 47 45 34 39 38 34 35 33 33 31 30 28 27 26 26 27 23 19 20 17 17 19 18 17 19 18 19 19 17 17 16 16
61 56 59 67 64 59 52 60 49 47 69 70 68 53 55 61 55 53 51 49 39 42 38 38 38 36 35 34 31 30 29 28 29 27 26 25 22 22 20 21 21 24 22 24 24 22 21 20 20
63 64 70 75 70 62 52 67 56 44 51 51 67 62 50 49 61 62 54 53 51 44 47 45 41 40 37 36 35 34 33 32 31 29 28 28 25 26 25 26 27 34 26 29 28 29 27 27 26
69 68 78 77 75 63 55 64 56 57 44 59 60 68 64 66 58 57 58 64 56 52 52 49 46 43 44 43 40 38 37 34 34 32 32 32 31 28 27 28 28 31 34 35 39 38 39 36 28
72 76 79 82 76 67 57 59 64 58 65 53 62 65 72 73 71 71 64 57 60 63 62 60 53 50 51 47 45 43 41 39 36 35 36 35 33 31 30 31 32 35 41 36 40 41 40 42 41
74 75 78 84 78 70 63 63 62 67 66 61 54 60 66 71 75 71 64 65 68 58 59 58 60 63 57 56 48 46 45 42 38 39 40 37 36 36 39 34 32 33 38 37 36 34 45 44 43
74 80 80 81 77 74 68 67 66 75 80 69 63 58 63 70 74 76 75 72 66 56 58 58 59 55 54 52 50 50 49 51 43 43 40 42 40 40 44 39 41 39 46 38 38 37 35 36 35
77 80 83 75 75 71 70 67 65 75 70 73 73 67 61 68 67 73 77 80 80 76 76 65 70 58 51 55 57 52 53 49 46 63 44 44 45 56 46 48 53 47 41 52 39 39 38 37 50
76 81 78 38 77 71 69 79 73 72 76 77 78 74 75 65 67 66 73 75 79 80 80 77 72 57 70 65 61 63 59 47 55 49 45 46 49 55 50 52 50 47 44 44 42 39 40 40 41
80 70 68 83 80 80 76 76 80 78 79 80 79 77 75 76 69 69 66 66 67 76 81 83 83 78 75 71 59 61 57 66 60 50 50 57 55 56 58 58 54 59 52 58 49 48 42 42 43
40 75 76 75 82 81 80 82 84 82 85 86 85 83 77 77 76 72 72 70 71 72 76 82 88 83 83 82 80 79 78 74 68 70 70 62 65 66 62 67 58 63 61 50 49 60 44 43 43
34 87 81 78 90 85 87 86 91 89 88 88 87 77 78 81 82 79 74 75 80 78 79 79 79 78 88 86 84 85 83 79 77 76 74 74 73 71 69 68 68 65 57 66 61 47 46 45 42
98 92 29 66 92 92 90 88 97 96 95 94 92 90 87 84 84 82 82 78 75 76 81 83 82 82 83 86 88 84 81 80 79 79 80 79 76 73 70 69 70 71 70 66 71 68 49 60 47
105 93 96 23 98 98 96 95 99 101 97 97 93 91 89 87 85 85 84 83 84 79 79 74 77 78 77 79 77 83 85 85 85 84 82 80 77 76 75 76 74 72 72 72 72 72 70 68 51
58 106 104 101 85 50 39 96 98 102 100 99 98 93 90 90 87 86 88 86 81 81 77 78 76 75 74 76 79 79 80 81 81 80 80 80 81 80 78 78 76 74 76 74 75 73 73 70 56
119 103 108 82 111 108 102 105 101 103 105 103 99 97 93 91 90 89 87 89 88 83 81 79 77 78 75 75 76 77 78 78 76 76 76 74 73 72 72 74 75 77 77 76 56 55 72 72 70
64 122 120 115 119 14 108 106 104 103 102 105 100 96 95 92 93 92 90 89 88 85 84 83 81 78 54 47 77 77 78 77 76 76 74 73 75 75 72 72 67 66 65 63 62 60 60 67 68
126 124 126 29 84 118 113 107 108 79 106 105 102 99 96 94 93 95 92 92 86 89 88 87 85 84 82 82 81 78 79 77 77 75 74 73 72 72 73 73 72 73 70 70 69 69 69 68 67
126 125 126 131 129 117 49 94 106 70 109 109 103 100 99 96 95 95 95 96 94 92 91 91 89 88 86 84 82 80 80 75 76 76 75 74 74 74 73 72 71 71 69 69 68 68 69 69 67
118 128 129 134 128 110 129 119 113 32 110 100 105 100 99 101 98 96 96 96 96 97 94 94 91 91 88 87 86 83 81 79 79 76 74 74 74 75 74 73 72 72 70 69 63 62 60 59 59
98 122 131 132 134 135 133 60 119 118 114 111 83 104 99 99 99 100 99 99 97 96 97 97 94 90 89 89 89 88 86 83 81 80 78 75 73 73 72 70 68 66 65 65 63 62 62 57 54
94 91 128 132 134 137 137 134 124 98 101 114 113 74 80 101 100 98 98 101 101 100 100 98 95 93 91 90 90 90 90 88 86 83 81 79 77 75 54 69 66 66 66 66 65 65 63 61 57
92 96 96 132 137 139 137 132 132 127 121 52 115 112 109 107 104 103 100 100 98 102 103 103 102 101 98 98 96 95 92 91 89 88 86 83 81 79 77 75 74 74 72 69 68 67 65 63 61
Wind_Direction
247 255 237 227 224 221 212 216 220 215 215 220 218 208 206 200 199 203 200 193 197 202 205 198 202 201 193 191 197 202 203 229 204 196 203 189 196 186 202 184 181 269 281 285 285 275 313 282 225
246 241 237 238 238 226 212 214 219 212 218 215 222 206 212 216 215 216 204 196 195 195 196 195 205 197 202 196 199 204 195 231 237 228 232 239 233 216 219 234 235 232 263 285 288 288 293 294 289
240 233 237 239 234 215 218 216 218 215 220 218 220 218 208 206 215 208 208 198 195 201 218 198 200 192 188 201 186 190 201 211 226 231 241 239 242 243 236 241 237 235 257 261 266 267 276 279 277
243 239 232 236 238 234 221 221 221 217 219 219 220 219 213 213 214 211 208 205 200 199 195 192 195 198 206 188 181 187 173 183 186 172 169 183 243 239 242 242 246 265 244 241 252 264 264 283 263
234 238 237 234 234 232 235 223 222 220 221 221 219 216 212 216 212 214 212 208 208 202 204 206 210 209 209 210 211 202 199 201 217 210 215 227 229 243 267 246 248 248 262 269 273 249 248 248 251
242 232 236 235 238 230 231 226 223 223 224 225 223 225 220 217 225 214 211 211 211 213 213 210 207 208 209 209 214 215 220 214 219 228 230 227 235 250 265 270 279 274 267 249 267 258 274 254 276
237 242 239 238 233 232 228 230 225 228 226 225 226 225 225 223 222 218 214 211 215 217 217 218 216 214 217 216 214 215 218 226 227 239 238 239 241 243 271 263 276 277 281 279 278 279 278 275 275
242 232 243 248 237 226 224 230 230 229 230 227 224 224 224 230 228 227 228 220 217 219 218 221 221 220 217 219 218 219 223 222 229 229 235 239 248 252 251 252 275 284 279 275 270 268 272 273 286
239 239 244 241 240 235 222 230 234 228 230 229 230 224 223 229 228 229 230 232 220 224 222 225 224 227 225 222 220 222 229 226 231 226 232 238 241 245 268 266 264 274 282 272 272 265 268 277 276
242 237 239 240 241 228 226 231 228 227 228 218 225 229 225 229 228 230 230 232 233 224 225 227 225 226 228 226 225 223 227 228 231 228 230 232 248 243 247 252 282 247 261 281 275 273 272 271 275
240 239 238 240 241 232 223 230 231 225 228 227 221 222 231 235 233 232 232 235 233 229 229 228 227 227 231 231 229 228 222 229 232 235 232 238 237 243 258 261 257 274 270 254 250 257 259 257 272
243 239 240 241 241 239 232 233 231 229 227 232 229 222 225 230 233 234 234 231 233 236 236 235 230 230 233 232 232 231 229 232 231 235 240 236 250 242 250 255 270 278 253 266 249 252 256 259 260
243 243 241 242 242 240 237 235 235 228 229 230 234 230 227 228 229 230 233 237 236 234 235 236 238 236 236 236 236 236 236 232 228 231 249 248 245 245 266 251 250 256 264 273 273 276 258 256 257
243 241 240 241 241 241 236 238 232 226 230 227 230 232 229 229 230 229 229 237 236 236 240 240 238 236 235 235 237 238 238 243 232 234 236 251 254 242 264 253 259 262 250 266 269 274 273 280 281
239 241 241 241 240 238 237 237 236 232 235 229 228 231 230 229 228 229 229 227 228 239 229 240 240 235 233 237 240 239 242 238 235 247 242 249 256 252 265 260 248 258 262 248 261 269 274 272 263
238 234 241 246 240 236 236 232 233 232 233 232 228 228 229 228 229 228 232 231 230 229 231 242 242 237 244 244 243 243 243 240 244 243 237 247 255 251 261 261 258 259 259 260 260 263 269 272 275
237 236 234 239 237 234 231 231 234 233 232 232 229 229 229 230 229 230 228 230 232 234 231 231 231 237 245 244 240 241 242 247 246 239 246 253 255 258 251 254 256 250 252 256 256 256 263 266 271
244 233 235 236 238 237 232 231 231 231 231 230 229 229 227 230 229 229 230 228 227 231 233 232 232 231 232 233 235 242 237 240 246 246 244 251 256 257 251 245 253 250 251 251 255 257 260 264 268
229 230 225 233 234 229 229 225 229 227 229 230 231 237 230 228 230 229 228 230 227 231 233 233 234 234 235 233 233 235 236 237 240 242 241 242 242 243 244 244 246 253 252 253 259 259 262 265 267
233 231 228 230 232 234 226 226 228 227 226 226 227 227 227 226 228 229 230 230 231 230 232 236 236 234 235 236 237 238 238 238 239 239 241 242 242 245 245 247 247 249 249 253 254 256 256 260 264
229 234 230 253 230 231 230 226 228 231 226 227 226 226 227 227 226 229 229 230 233 231 232 232 234 236 237 236 237 238 240 242 242 242 242 243 244 244 245 245 248 250 250 251 254 256 257 258 260
235 227 231 233 239 242 246 230 225 231 232 225 227 227 226 228 227 228 230 232 232 233 233 234 235 235 235 236 238 239 240 241 243 244 246 247 248 249 248 246 247 250 250 251 252 256 258 260 259
227 238 230 232 233 235 231 230 228 227 230 230 225 228 226 226 229 229 230 232 235 235 234 234 234 237 237 237 238 239 241 242 243 245 245 246 248 250 251 253 253 254 256 255 251 254 257 259 261
232 224 227 229 228 211 231 230 229 230 231 230 231 226 228 226 227 230 231 232 234 233 235 234 235 235 238 241 239 239 240 241 243 244 245 246 247 248 250 251 250 250 251 251 251 252 255 261 263
225 232 225 234 236 230 231 231 229 228 231 231 230 229 228 227 228 228 231 232 234 234 234 234 234 235 234 236 238 239 242 242 243 245 246 247 248 249 250 250 252 252 255 258 260 261 262 262 262
222 222 232 225 227 233 242 237 231 224 229 231 230 230 227 229 229 229 230 231 234 235 234 235 235 235 236 236 237 238 240 240 244 245 245 246 248 249 251 252 253 255 256 259 261 263 264 265 265
221 221 221 228 231 227 228 237 232 227 231 236 232 231 230 227 229 230 232 233 233 234 236 236 237 236 237 238 238 239 239 239 240 240 244 246 248 249 251 252 254 256 259 260 261 262 264 267 267
215 219 221 222 227 228 228 233 230 229 231 232 232 232 231 230 230 231 232 232 233 235 236 237 237 238 238 239 240 241 240 239 240 241 240 240 242 245 248 251 252 254 256 257 259 260 262 266 268
214 212 218 221 223 227 225 228 228 230 229 231 231 232 230 230 232 231 232 233 233 233 236 237 237 236 237 238 240 240 241 241 240 240 241 241 241 242 241 245 246 249 252 253 254 256 259 261 264
214 213 212 219 222 224 225 224 224 224 228 240 232 232 232 230 230 231 231 232 235 234 236 234 236 238 238 239 240 240 241 242 242 242 239 240 241 241 243 242 242 244 246 249 252 253 256 260 261